EW4036 Weather Reports


Display with metric or nautical units.
time (UTC)temp
F
wind
direction
speed
MPH
gust
MPH
rain 1hr
in
rain 24hr
in
rain mn
in
humidity
%
barometer
mb
20260507113101 55 292 7.0 12.0 0.00 0.00 0.00 38 1015.2
20260507111546 55 332 5.0 14.0 0.00 0.00 0.00 43 1015.2
20260507110043 54 304 5.0 13.0 0.00 0.00 0.00 47 1015.2
20260507104545 54 295 7.0 12.0 0.00 0.00 0.00 47 1015.1
20260507103048 54 323 5.0 13.0 0.00 0.00 0.00 46 1015.0
20260507101542 53 282 8.0 14.0 0.00 0.00 0.00 45 1014.9
20260507100039 53 264 9.0 14.0 0.00 0.00 0.00 45 1014.7
20260507094541 53 306 6.0 13.0 0.00 0.00 0.00 43 1014.6
20260507093038 53 330 6.0 13.0 0.00 0.00 0.00 45 1014.5
20260507091543 53 311 5.0 12.0 0.00 0.00 0.00 43 1014.5
20260507090140 52 285 8.0 12.0 0.00 0.00 0.00 49 1014.4
20260507084546 53 296 6.0 12.0 0.00 0.00 0.00 56 1014.4
20260507083041 53 320 5.0 10.0 0.00 0.00 0.00 51 1014.3
20260507081544 52 303 2.0 11.0 0.00 0.00 0.00 53 1014.1
20260507080138 52 327 3.0 8.0 0.00 0.00 0.00 54 1014.0
20260507073138 49 275 6.0 8.0 0.00 0.00 0.00 63 1013.9
20260507071541 48 297 2.0 4.0 0.00 0.00 0.00 66 1013.9
20260507070137 47 312 3.0 6.0 0.00 0.00 0.00 67 1013.8
20260507064548 46 313 2.0 6.0 0.00 0.00 0.00 72 1013.7
20260507063043 45 279 2.0 5.0 0.00 0.00 0.00 75 1013.7
20260507061543 44 290 2.0 5.0 0.00 0.00 0.00 77 1013.5
20260507060138 42 316 2.0 5.0 0.00 0.00 0.00 78 1013.4
20260507054539 41 280 3.0 5.0 0.00 0.00 0.00 79 1013.3
20260507053138 41 236 4.0 6.0 0.00 0.00 0.00 80 1013.3
20260507051544 40 248 3.0 5.0 0.00 0.00 0.00 80 1013.1
20260507050042 39 210 2.0 4.0 0.00 0.00 0.00 81 1013.1
20260507044548 38 202 2.0 4.0 0.00 0.00 0.00 82 1013.0
20260507043055 37 179 2.0 5.0 0.00 0.00 0.00 82 1012.9
20260507041543 36 164 1.0 3.0 0.00 0.00 0.00 81 1012.8
20260507040042 36 138 1.0 3.0 0.00 0.00 0.00 82 1012.7
20260507034541 36 138 2.0 4.0 0.00 0.00 0.00 81 1012.5
20260507033039 36 129 2.0 4.0 0.00 0.00 0.00 81 1012.4
20260507031546 36 108 0.0 3.0 0.00 0.00 0.00 82 1012.3
20260507030039 36 96 2.0 3.0 0.00 0.00 0.00 83 1012.2
20260507024547 36 82 1.0 2.0 0.00 0.00 0.00 82 1012.1
20260507023038 36 226 0.0 4.0 0.00 0.00 0.00 79 1012.1
20260507021540 38 103 0.0 2.0 0.00 0.00 0.00 78 1012.0
20260507020049 38 100 1.0 2.0 0.00 0.00 0.00 77 1011.9
20260507014544 38 90 1.0 2.0 0.00 0.00 0.00 75 1011.7
20260507013038 39 225 2.0 4.0 0.00 0.00 0.00 73 1011.8
20260507011546 40 88 2.0 5.0 0.00 0.00 0.00 72 1011.4
20260507010138 40 76 0.0 5.0 0.00 0.00 0.00 72 1011.5
20260507004544 40 92 0.0 2.0 0.00 0.00 0.00 72 1011.4
20260507003038 40 117 0.0 1.0 0.00 0.00 0.00 71 1011.4
20260507001606 40 118 0.0 3.0 0.00 0.00 0.00 70 1011.4
20260507000043 41 75 0.0 2.0 0.00 0.00 0.00 70 1011.4
20260506234551 41 69 1.0 3.0 0.00 0.00 0.00 69 1011.4
20260506233041 42 90 0.0 2.0 0.00 0.00 0.00 66 1011.4
20260506231543 43 89 0.0 2.0 0.00 0.00 0.00 65 1011.4
20260506230137 43 117 1.0 5.0 0.00 0.00 0.00 64 1011.3
20260506224541 43 107 2.0 5.0 0.00 0.00 0.00 63 1011.2
20260506223040 44 122 3.0 7.0 0.00 0.00 0.00 61 1011.2
20260506221551 45 108 4.0 7.0 0.00 0.00 0.00 60 1011.2
20260506220040 45 100 4.0 13.0 0.00 0.00 0.00 59 1011.1
20260506214549 45 124 4.0 10.0 0.00 0.00 0.00 58 1011.0
20260506213041 46 105 4.0 16.0 0.00 0.00 0.00 57 1011.0
20260506211541 45 101 7.0 11.0 0.00 0.00 0.00 57 1010.8
20260506210139 45 80 3.0 7.0 0.00 0.00 0.00 56 1010.8
20260506204545 46 98 6.0 11.0 0.00 0.00 0.00 55 1010.8
20260506203139 46 108 3.0 10.0 0.00 0.00 0.00 54 1010.8
20260506201541 46 69 3.0 9.0 0.00 0.00 0.00 51 1010.9
20260506200139 46 103 5.0 10.0 0.00 0.00 0.00 51 1010.8
20260506194541 46 95 3.0 8.0 0.00 0.00 0.00 48 1010.7
20260506193138 46 57 1.0 4.0 0.00 0.00 0.00 49 1010.6
20260506191543 49 33 0.0 2.0 0.00 0.00 0.00 46 1010.5
20260506190137 49 125 0.0 2.0 0.00 0.00 0.00 46 1010.4
20260506184546 52 13 0.0 3.0 0.00 0.00 0.00 41 1010.4
20260506183044 52 13 1.0 3.0 0.00 0.00 0.00 39 1010.3
20260506181548 53 14 2.0 5.0 0.00 0.00 0.00 39 1010.2
20260506180038 53 345 2.0 6.0 0.00 0.00 0.00 39 1010.2
20260506174539 53 325 4.0 7.0 0.00 0.00 0.00 38 1010.1
20260506173043 54 334 4.0 10.0 0.00 0.00 0.00 35 1010.1
20260506171541 55 321 6.0 10.0 0.00 0.00 0.00 33 1010.0
20260506170139 56 360 5.0 8.0 0.00 0.00 0.00 34 1010.0
20260506164555 56 342 5.0 12.0 0.00 0.00 0.00 33 1010.0
20260506163042 55 330 7.0 13.0 0.00 0.00 0.00 32 1009.9
20260506161546 56 292 7.0 13.0 0.00 0.00 0.00 31 1009.9
20260506160038 57 307 6.0 9.0 0.00 0.00 0.00 29 1009.8
20260506154543 57 119 2.0 4.0 0.00 0.00 0.00 27 1010.0
20260506153039 56 166 1.0 8.0 0.00 0.00 0.00 28 1009.9
20260506151541 57 113 5.0 10.0 0.00 0.00 0.00 26 1010.0
20260506150045 56 86 5.0 13.0 0.00 0.00 0.00 25 1010.1
20260506144540 57 90 3.0 8.0 0.00 0.00 0.00 25 1010.1
20260506143138 56 315 5.0 11.0 0.00 0.00 0.00 25 1010.3
20260506141637 57 174 4.0 8.0 0.00 0.00 0.00 25 1010.4
20260506140138 57 262 4.0 11.0 0.00 0.00 0.00 25 1010.5
20260506134637 57 67 1.0 11.0 0.00 0.00 0.00 25 1010.5
20260506133052 56 271 3.0 8.0 0.00 0.00 0.00 25 1010.7
20260506131542 56 169 7.0 12.0 0.00 0.00 0.00 25 1010.9
20260506130040 56 290 1.0 8.0 0.00 0.00 0.00 26 1010.9
20260506124542 55 110 3.0 9.0 0.00 0.00 0.00 25 1011.1
20260506123137 55 134 5.0 11.0 0.00 0.00 0.00 25 1011.2
20260506121540 55 231 0.0 13.0 0.00 0.00 0.00 27 1011.3
20260506120056 54 150 5.0 11.0 0.00 0.00 0.00 25 1011.4
20260506114544 54 202 6.0 12.0 0.00 0.00 0.00 25 1011.4